OK,51,51,986,51,2014-10-01T01:40:00,0,28072756,187933
OK,51,51,986,51,2014-10-01T01:45:00,0,28073203,187933
OK,51,51,986,51,2014-10-01T01:50:00,0,28073651,187933
OK,51,51,986,51,2014-10-01T01:55:00,0,28073969,187933
OK,51,51,986,51,2014-10-01T02:00:00,0,28074418,187933
OK,77,34,986,77,2014-10-01T02:05:00,1,28074858,187933
OK,77,34,986,77,2014-10-01T02:10:00,1,28075307,187933
OK,77,34,986,77,2014-10-01T02:15:00,0,28075756,187933
OK,77,34,986,77,2014-10-01T02:20:00,0,28076139,187933
OK,77,34,986,77,2014-10-01T02:25:00,0,28076588,187933
OK,77,34,986,77,2014-10-01T02:30:00,0,28077037,187933
OK,77,34,986,77,2014-10-01T02:35:00,0,28077486,187933
OK,77,34,986,77,2014-10-01T02:40:00,0,28077889,187933
OK,77,34,986,77,2014-10-01T02:45:00,0,28078338,187933
OK,77,34,986,77,2014-10-01T02:50:00,0,28078783,187933
OK,77,34,986,77,2014-10-01T02:55:00,0,28079232,187933
OK,77,34,986,77,2014-10-01T03:00:00,0,28079674,187933
OK,77,34,986,77,2014-10-01T03:05:00,0,28080123,187933
OK,77,34,986,77,2014-10-01T03:10:00,0,28080457,187933
OK,77,34,986,77,2014-10-01T03:15:00,0,28080906,187933
OK,77,34,986,77,2014-10-01T03:20:00,0,28081355,187933
OK,77,34,986,77,2014-10-01T03:25:00,0,28081802,187933
OK,77,34,986,77,2014-10-01T03:30:00,0,28082251,187933
OK,77,34,986,77,2014-10-01T03:35:00,0,28082684,187933
OK,77,34,986,77,2014-10-01T03:40:00,0,28083116,187933
OK,77,34,986,77,2014-10-01T03:45:00,0,28083565,187933
OK,77,34,986,77,2014-10-01T03:50:00,0,28084014,187933
OK,77,34,986,77,2014-10-01T03:55:00,0,28084455,187933
OK,77,34,986,77,2014-10-01T04:00:00,0,28084880,187933
OK,77,34,986,77,2014-10-01T04:05:00,0,28085329,187933
OK,60,43,986,60,2014-10-01T04:10:00,1,28085774,187933
OK,60,43,986,60,2014-10-01T04:15:00,0,28086223,187933
OK,60,43,986,60,2014-10-01T04:20:00,0,28086665,187933
OK,55,47,986,55,2014-10-01T04:25:00,1,28087114,187933
OK,55,47,986,55,2014-10-01T04:30:00,1,28087559,187933
OK,45,58,986,45,2014-10-01T04:35:00,1,28088008,187933
OK,77,34,986,77,2014-10-01T04:40:00,5,28088432,187933
OK,35,75,986,35,2014-10-01T04:45:00,1,28088881,187933
OK,35,75,986,35,2014-10-01T04:50:00,0,28089311,187933
OK,35,75,986,35,2014-10-01T04:55:00,0,28089760,187933
OK,90,29,986,90,2014-10-01T05:00:00,2,28090209,187933
OK,59,44,986,59,2014-10-01T05:05:00,3,28090553,187933
OK,58,45,986,58,2014-10-01T05:10:00,2,28091002,187933
OK,92,28,986,92,2014-10-01T05:15:00,1,28091451,187933
OK,44,59,986,44,2014-10-01T05:20:00,2,28091868,187933
OK,44,59,986,44,2014-10-01T05:25:00,2,28092317,187933
OK,100,26,986,100,2014-10-01T05:30:00,3,28092761,187933
OK,110,23,986,110,2014-10-01T05:35:00,6,28093202,187933
OK,164,16,986,164,2014-10-01T05:40:00,5,28093633,187933
OK,186,14,986,186,2014-10-01T05:45:00,3,28094082,187933
OK,278,9,986,278,2014-10-01T05:50:00,1,28094493,187933
OK,188,13,986,188,2014-10-01T05:55:00,1,28094938,187933
OK,221,11,986,221,2014-10-01T06:00:00,2,28095385,187933
OK,269,9,986,269,2014-10-01T06:05:00,2,28095834,187933
OK,252,10,986,252,2014-10-01T06:10:00,2,28096247,187933
OK,244,10,986,244,2014-10-01T06:15:00,5,28096696,187933
OK,260,10,986,260,2014-10-01T06:20:00,6,28097130,187933
OK,305,8,986,305,2014-10-01T06:25:00,3,28097579,187933
OK,187,14,986,187,2014-10-01T06:30:00,2,28098028,187933
OK,214,12,986,214,2014-10-01T06:35:00,1,28098465,187933
OK,163,16,986,163,2014-10-01T06:40:00,1,28098909,187933
OK,163,16,986,163,2014-10-01T06:45:00,1,28099357,187933
OK,178,14,986,178,2014-10-01T06:50:00,1,28099700,187933
OK,146,18,986,146,2014-10-01T06:55:00,2,28100149,187933
OK,183,14,986,183,2014-10-01T07:00:00,2,28100456,187933
OK,252,10,986,252,2014-10-01T07:05:00,1,28100905,187933
OK,78,33,986,78,2014-10-01T07:10:00,2,28101276,187933
OK,81,32,986,81,2014-10-01T07:15:00,4,28101725,187933
OK,58,45,986,58,2014-10-01T07:20:00,3,28102161,187933
OK,83,31,986,83,2014-10-01T07:25:00,2,28102610,187933
OK,132,19,986,132,2014-10-01T07:30:00,2,28103038,187933
OK,155,16,986,155,2014-10-01T07:35:00,0,28103484,187933
OK,65,40,986,65,2014-10-01T07:40:00,1,28103929,187933
OK,84,31,986,84,2014-10-01T07:45:00,2,28104374,187933
OK,95,27,986,95,2014-10-01T07:50:00,2,28104815,187933
OK,42,62,986,42,2014-10-01T07:55:00,3,28105260,187933
OK,89,29,986,89,2014-10-01T08:00:00,5,28105700,187933
OK,106,24,986,106,2014-10-01T08:05:00,5,28106149,187933
OK,106,24,986,106,2014-10-01T08:10:00,3,28106586,187933
OK,119,22,986,119,2014-10-01T08:15:00,1,28106992,187933
OK,119,22,986,119,2014-10-01T08:20:00,0,28107424,187933
OK,119,22,986,119,2014-10-01T08:25:00,0,28107873,187933
OK,76,34,986,76,2014-10-01T08:30:00,2,28108312,187933
OK,96,27,986,96,2014-10-01T08:35:00,5,28108761,187933
OK,96,27,986,96,2014-10-01T08:40:00,5,28109189,187933
OK,75,35,986,75,2014-10-01T08:45:00,2,28109638,187933
OK,75,35,986,75,2014-10-01T08:50:00,0,28109981,187933
OK,21,125,986,21,2014-10-01T08:55:00,1,28110430,187933
OK,21,125,986,21,2014-10-01T09:00:00,1,28110853,187933
OK,21,125,986,21,2014-10-01T09:05:00,0,28111302,187933
OK,106,24,986,106,2014-10-01T09:10:00,2,28111731,187933
OK,78,33,986,78,2014-10-01T09:15:00,5,28112180,187933
OK,41,64,986,41,2014-10-01T09:20:00,3,28112521,187933
OK,54,48,986,54,2014-10-01T09:25:00,1,28112970,187933
OK,84,31,986,84,2014-10-01T09:30:00,3,28113394,187933
OK,81,32,986,81,2014-10-01T09:35:00,4,28113843,187933
OK,75,35,986,75,2014-10-01T09:40:00,3,28114275,187933
OK,68,38,986,68,2014-10-01T09:45:00,2,28114724,187933
OK,69,38,986,69,2014-10-01T09:50:00,1,28115078,187933
OK,115,22,986,115,2014-10-01T10:00:00,4,28115939,187933
OK,93,28,986,93,2014-10-01T10:05:00,2,28116388,187933
OK,64,41,986,64,2014-10-01T10:10:00,1,28116796,187933
OK,85,30,986,85,2014-10-01T10:15:00,3,28117245,187933
OK,89,29,986,89,2014-10-01T10:20:00,2,28117670,187933
OK,76,34,986,76,2014-10-01T10:25:00,1,28118119,187933
OK,87,30,986,87,2014-10-01T10:30:00,3,28118564,187933
OK,73,36,986,73,2014-10-01T10:35:00,4,28119011,187933
OK,65,40,986,65,2014-10-01T10:40:00,4,28119455,187933
OK,75,35,986,75,2014-10-01T10:45:00,3,28119903,187933
OK,75,35,986,75,2014-10-01T10:50:00,1,28120351,187933
OK,75,35,986,75,2014-10-01T10:55:00,0,28120800,187933
OK,81,32,986,81,2014-10-01T11:00:00,1,28121183,187933
OK,75,35,986,75,2014-10-01T11:05:00,2,28121632,187933
OK,46,57,986,46,2014-10-01T11:10:00,2,28122070,187933
OK,86,30,986,86,2014-10-01T11:15:00,3,28122519,187933
OK,99,26,986,99,2014-10-01T11:20:00,3,28122960,187933
OK,99,26,986,99,2014-10-01T11:25:00,1,28123409,187933
OK,99,26,986,99,2014-10-01T11:30:00,0,28123841,187933
OK,99,26,986,99,2014-10-01T11:35:00,0,28124290,187933
OK,99,26,986,99,2014-10-01T11:40:00,0,28124692,187933
OK,68,38,986,68,2014-10-01T11:45:00,1,28125141,187933
OK,72,36,986,72,2014-10-01T11:50:00,2,28125570,187933
OK,76,34,986,76,2014-10-01T11:55:00,1,28126019,187933
OK,76,34,986,76,2014-10-01T12:00:00,0,28126371,187933
OK,76,34,986,76,2014-10-01T12:05:00,0,28126820,187933
OK,76,34,986,76,2014-10-01T12:10:00,0,28127269,187933
OK,76,34,986,76,2014-10-01T12:15:00,0,28127718,187933
OK,93,28,986,93,2014-10-01T12:20:00,1,28128146,187933
OK,153,17,986,153,2014-10-01T12:25:00,3,28128595,187933
OK,132,19,986,132,2014-10-01T12:30:00,3,28129030,187933
OK,119,22,986,119,2014-10-01T12:35:00,4,28129479,187933
OK,107,24,986,107,2014-10-01T12:40:00,1,28129913,187933
OK,100,26,986,100,2014-10-01T12:45:00,2,28130362,187933
OK,78,33,986,78,2014-10-01T12:50:00,3,28130790,187933
OK,78,33,986,78,2014-10-01T12:55:00,1,28131239,187933
OK,78,33,986,78,2014-10-01T13:00:00,0,28131676,187933
OK,48,54,986,48,2014-10-01T13:05:00,1,28132125,187933
OK,48,54,986,48,2014-10-01T13:10:00,1,28132563,187933
OK,48,54,986,48,2014-10-01T13:15:00,0,28133010,187933
OK,48,54,986,48,2014-10-01T13:20:00,0,28133448,187933
OK,132,19,986,132,2014-10-01T13:25:00,1,28133897,187933
OK,82,32,986,82,2014-10-01T13:30:00,2,28134336,187933
OK,88,29,986,88,2014-10-01T13:35:00,4,28134785,187933
OK,117,22,986,117,2014-10-01T13:40:00,3,28135204,187933
OK,117,22,986,117,2014-10-01T13:45:00,0,28135653,187933
OK,113,23,986,113,2014-10-01T13:50:00,1,28136090,187933
OK,113,23,986,113,2014-10-01T13:55:00,3,28136539,187933
OK,118,22,986,118,2014-10-01T14:00:00,2,28136979,187933
OK,130,20,986,130,2014-10-01T14:05:00,1,28137428,187933
OK,108,24,986,108,2014-10-01T14:10:00,2,28137862,187933
OK,86,30,986,86,2014-10-01T14:15:00,1,28138311,187933
OK,124,21,986,124,2014-10-01T14:20:00,2,28138739,187933
OK,77,34,986,77,2014-10-01T14:25:00,4,28139188,187933
OK,33,79,986,33,2014-10-01T14:30:00,4,28139599,187933
OK,112,23,986,112,2014-10-01T14:35:00,2,28140048,187933
OK,189,13,986,189,2014-10-01T14:40:00,0,28140490,187933
OK,189,13,986,189,2014-10-01T14:45:00,0,28140939,187933
OK,189,13,986,189,2014-10-01T14:50:00,0,28141365,187933
OK,189,13,986,189,2014-10-01T14:55:00,0,28141814,187933
OK,131,20,986,131,2014-10-01T15:00:00,2,28142242,187933
OK,131,20,986,131,2014-10-01T15:05:00,2,28142691,187933
OK,108,24,986,108,2014-10-01T15:10:00,1,28143118,187933
OK,109,24,986,109,2014-10-01T15:15:00,2,28143567,187933
OK,105,25,986,105,2014-10-01T15:20:00,2,28144015,187933
OK,99,26,986,99,2014-10-01T15:25:00,5,28144464,187933
OK,81,32,986,81,2014-10-01T15:30:00,4,28144885,187933
OK,70,37,986,70,2014-10-01T15:35:00,2,28145299,187933
OK,76,34,986,76,2014-10-01T15:40:00,1,28145748,187933
OK,76,34,986,76,2014-10-01T15:45:00,0,28146197,187933
OK,76,34,986,76,2014-10-01T15:50:00,0,28146646,187933
OK,76,34,986,76,2014-10-01T15:55:00,0,28147054,187933
OK,76,34,986,76,2014-10-01T16:00:00,0,28147498,187933
OK,76,34,986,76,2014-10-01T16:05:00,0,28147947,187933
OK,83,31,986,83,2014-10-01T16:10:00,2,28148348,187933
OK,103,25,986,103,2014-10-01T16:15:00,2,28148797,187933
OK,114,23,986,114,2014-10-01T16:20:00,1,28149236,187933
OK,103,25,986,103,2014-10-01T16:25:00,1,28149685,187933
OK,93,28,986,93,2014-10-01T16:30:00,2,28150111,187933
OK,69,38,986,69,2014-10-01T16:35:00,2,28150560,187933
OK,65,40,986,65,2014-10-01T16:40:00,3,28150978,187933
OK,83,31,986,83,2014-10-01T16:45:00,2,28151427,187933
OK,101,26,986,101,2014-10-01T16:50:00,0,28151876,187933
OK,101,26,986,101,2014-10-01T17:00:00,0,28152325,187933
OK,101,26,986,101,2014-10-01T17:05:00,0,28152771,187933
OK,101,26,986,101,2014-10-01T17:10:00,0,28153218,187933
OK,71,37,986,71,2014-10-01T17:15:00,1,28153667,187933
OK,71,37,986,71,2014-10-01T17:20:00,0,28154077,187933
OK,88,29,986,88,2014-10-01T17:25:00,1,28154526,187933
OK,88,29,986,88,2014-10-01T17:30:00,1,28154968,187933
OK,88,29,986,88,2014-10-01T17:35:00,0,28155416,187933
OK,91,28,986,91,2014-10-01T17:40:00,1,28155834,187933
OK,92,28,986,92,2014-10-01T17:45:00,2,28156283,187933
OK,94,27,986,94,2014-10-01T17:50:00,1,28156731,187933
OK,22,119,986,22,2014-10-01T17:55:00,1,28157170,187933
OK,22,119,986,22,2014-10-01T18:00:00,1,28157600,187933
OK,22,119,986,22,2014-10-01T18:05:00,0,28158048,187933
OK,22,119,986,22,2014-10-01T18:10:00,0,28158492,187933
OK,132,19,986,132,2014-10-01T18:15:00,2,28158938,187933
OK,132,19,986,132,2014-10-01T18:20:00,2,28159384,187933
OK,132,19,986,132,2014-10-01T18:25:00,0,28159719,187933
OK,132,19,986,132,2014-10-01T18:30:00,0,28160168,187933
OK,132,19,986,132,2014-10-01T18:35:00,0,28160617,187933
OK,64,41,986,64,2014-10-01T18:40:00,1,28161055,187933
OK,64,41,986,64,2014-10-01T18:45:00,1,28161504,187933
OK,103,25,986,103,2014-10-01T18:50:00,1,28161921,187933
OK,103,25,986,103,2014-10-01T18:55:00,0,28162370,187933
OK,103,25,986,103,2014-10-01T19:00:00,0,28162764,187933
OK,103,25,986,103,2014-10-01T19:05:00,0,28163203,187933
OK,103,25,986,103,2014-10-01T19:10:00,0,28163651,187933
OK,103,25,986,103,2014-10-01T19:15:00,0,28164100,187933
OK,70,37,986,70,2014-10-01T19:20:00,1,28164531,187933
OK,70,37,986,70,2014-10-01T19:25:00,1,28164980,187933
OK,70,37,986,70,2014-10-01T19:30:00,0,28165405,187933
OK,70,37,986,70,2014-10-01T19:35:00,0,28165853,187933
OK,70,37,986,70,2014-10-01T19:40:00,0,28166294,187933
OK,200,13,986,200,2014-10-01T19:45:00,1,28166656,187933
OK,35,75,986,35,2014-10-01T19:50:00,1,28167105,187933
OK,35,75,986,35,2014-10-01T19:55:00,1,28167534,187933
OK,35,75,986,35,2014-10-01T20:00:00,0,28167967,187933
OK,105,25,986,105,2014-10-01T20:05:00,1,28168416,187933
OK,105,25,986,105,2014-10-01T20:10:00,1,28168861,187933
OK,105,25,986,105,2014-10-01T20:15:00,0,28169310,187933
OK,105,25,986,105,2014-10-01T20:20:00,0,28169758,187933
OK,105,25,986,105,2014-10-01T20:25:00,0,28170184,187933
OK,105,25,986,105,2014-10-01T20:30:00,0,28170629,187933
OK,70,37,986,70,2014-10-01T20:35:00,1,28171077,187933
OK,70,37,986,70,2014-10-01T20:40:00,1,28171514,187933
OK,70,37,986,70,2014-10-01T20:45:00,0,28171960,187933
OK,70,37,986,70,2014-10-01T20:50:00,0,28172408,187933
OK,70,37,986,70,2014-10-01T20:55:00,0,28172854,187933
OK,70,37,986,70,2014-10-01T21:00:00,0,28173300,187933
OK,61,43,986,61,2014-10-01T21:05:00,1,28173749,187933
OK,61,43,986,61,2014-10-01T21:10:00,0,28174190,187933
OK,61,43,986,61,2014-10-01T21:15:00,0,28174639,187933
OK,61,43,986,61,2014-10-01T21:20:00,0,28175065,187933
OK,61,43,986,61,2014-10-01T21:25:00,0,28175461,187933
OK,61,43,986,61,2014-10-01T21:30:00,0,28175910,187933
OK,61,43,986,61,2014-10-01T21:35:00,0,28176359,187933
OK,61,43,986,61,2014-10-01T21:40:00,0,28176808,187933
OK,61,43,986,61,2014-10-01T21:45:00,0,28177164,187933
OK,61,43,986,61,2014-10-01T21:50:00,0,28177604,187933
OK,61,43,986,61,2014-10-01T21:55:00,0,28178050,187933
OK,61,43,986,61,2014-10-01T22:00:00,0,28178499,187933
OK,61,43,986,61,2014-10-01T22:05:00,0,28178946,187933
OK,61,43,986,61,2014-10-01T22:10:00,0,28179380,187933
OK,61,43,986,61,2014-10-01T22:15:00,0,28179823,187933
OK,61,43,986,61,2014-10-01T22:20:00,0,28180270,187933
OK,61,43,986,61,2014-10-01T22:25:00,0,28180668,187933
OK,61,43,986,61,2014-10-01T22:30:00,0,28181117,187933
OK,61,43,986,61,2014-10-01T22:35:00,0,28181541,187933
OK,61,43,986,61,2014-10-01T22:40:00,0,28181989,187933
OK,61,43,986,61,2014-10-01T22:45:00,0,28182436,187933
OK,61,43,986,61,2014-10-01T22:50:00,0,28182885,187933
OK,61,43,986,61,2014-10-01T22:55:00,0,28183302,187933
OK,61,43,986,61,2014-10-01T23:00:00,0,28183735,187933
OK,61,43,986,61,2014-10-01T23:05:00,0,28184180,187933
OK,61,43,986,61,2014-10-01T23:10:00,0,28184629,187933
OK,61,43,986,61,2014-10-01T23:15:00,0,28185064,187933
OK,61,43,986,61,2014-10-01T23:20:00,0,28185512,187933
OK,61,43,986,61,2014-10-01T23:25:00,0,28185943,187933
OK,61,43,986,61,2014-10-01T23:30:00,0,28186335,187933
OK,88,29,986,88,2014-10-01T23:40:00,1,28187182,187933
OK,88,29,986,88,2014-10-01T23:55:00,0,28188514,187933
OK,88,29,986,88,2014-10-02T00:05:00,0,28189399,187933
OK,88,29,986,88,2014-10-02T00:10:00,0,28189821,187933
OK,88,29,986,88,2014-10-02T00:15:00,0,28190270,187933
OK,88,29,986,88,2014-10-02T00:20:00,0,28190623,187933
OK,88,29,986,88,2014-10-02T00:30:00,0,28191521,187933
OK,88,29,986,88,2014-10-02T00:35:00,0,28191827,187933
OK,88,29,986,88,2014-10-02T00:40:00,0,28192276,187933
OK,88,29,986,88,2014-10-02T00:45:00,0,28192709,187933
OK,88,29,986,88,2014-10-02T00:50:00,0,28193153,187933
OK,88,29,986,88,2014-10-02T00:55:00,0,28193520,187933
OK,88,29,986,88,2014-10-02T01:05:00,0,28194418,187933
OK,88,29,986,88,2014-10-02T01:10:00,0,28194867,187933
OK,88,29,986,88,2014-10-02T01:15:00,0,28195103,187933
OK,88,29,986,88,2014-10-02T01:25:00,0,28196001,187933
OK,88,29,986,88,2014-10-02T01:30:00,0,28196286,187933
OK,88,29,986,88,2014-10-02T01:35:00,0,28196734,187933
OK,88,29,986,88,2014-10-02T01:40:00,0,28197157,187933
OK,88,29,986,88,2014-10-02T01:45:00,0,28197606,187933
OK,88,29,986,88,2014-10-02T01:50:00,0,28198054,187933
OK,88,29,986,88,2014-10-02T01:55:00,0,28198502,187933
OK,88,29,986,88,2014-10-02T02:00:00,0,28198951,187933
OK,88,29,986,88,2014-10-02T02:05:00,0,28199323,187933
OK,88,29,986,88,2014-10-02T02:10:00,0,28199765,187933
OK,88,29,986,88,2014-10-02T02:15:00,0,28200207,187933
OK,88,29,986,88,2014-10-02T02:20:00,0,28200650,187933
OK,88,29,986,88,2014-10-02T02:25:00,0,28201099,187933
OK,88,29,986,88,2014-10-02T02:30:00,0,28201530,187933
OK,25,105,986,25,2014-10-02T02:45:00,0,28202428,187933
OK,25,105,986,25,2014-10-02T02:50:00,0,28202870,187933
OK,25,105,986,25,2014-10-02T02:55:00,0,28203318,187933
OK,25,105,986,25,2014-10-02T03:00:00,0,28203753,187933
OK,25,105,986,25,2014-10-02T03:10:00,0,28204202,187933
OK,25,105,986,25,2014-10-02T03:25:00,0,28204651,187933
OK,25,105,986,25,2014-10-02T03:30:00,0,28205100,187933
OK,24,109,986,24,2014-10-02T03:35:00,1,28205528,187933
OK,24,109,986,24,2014-10-02T03:40:00,0,28205975,187933
OK,24,109,986,24,2014-10-02T03:45:00,0,28206358,187933
OK,24,109,986,24,2014-10-02T03:55:00,0,28207256,187933
OK,24,109,986,24,2014-10-02T04:05:00,0,28208124,187933
OK,24,109,986,24,2014-10-02T04:10:00,0,28208551,187933
OK,24,109,986,24,2014-10-02T04:15:00,0,28209000,187933
OK,24,109,986,24,2014-10-02T04:20:00,0,28209438,187933
OK,24,109,986,24,2014-10-02T04:25:00,0,28209887,187933
OK,68,38,986,68,2014-10-02T04:30:00,1,28210310,187933
OK,68,38,986,68,2014-10-02T04:35:00,1,28210759,187933
OK,68,38,986,68,2014-10-02T04:40:00,0,28211184,187933
OK,68,38,986,68,2014-10-02T04:45:00,0,28211628,187933
OK,68,38,986,68,2014-10-02T04:50:00,0,28212006,187933
OK,68,38,986,68,2014-10-02T04:55:00,0,28212455,187933
OK,68,38,986,68,2014-10-02T05:00:00,0,28212884,187933
OK,68,38,986,68,2014-10-02T05:05:00,0,28213333,187933
OK,68,38,986,68,2014-10-02T05:10:00,0,28213771,187933
OK,68,38,986,68,2014-10-02T05:15:00,0,28214220,187933
OK,68,38,986,68,2014-10-02T05:20:00,0,28214633,187933
OK,96,27,986,96,2014-10-02T05:25:00,1,28215082,187933
OK,96,27,986,96,2014-10-02T05:30:00,0,28215498,187933
OK,96,27,986,96,2014-10-02T05:35:00,0,28215947,187933
OK,136,19,986,136,2014-10-02T05:40:00,1,28216286,187933
OK,136,19,986,136,2014-10-02T05:45:00,0,28216726,187933
OK,136,19,986,136,2014-10-02T05:50:00,0,28217173,187933
OK,289,9,986,289,2014-10-02T05:55:00,3,28217622,187933
OK,280,9,986,280,2014-10-02T06:00:00,5,28218061,187933
OK,213,12,986,213,2014-10-02T06:05:00,3,28218510,187933
OK,201,13,986,201,2014-10-02T06:10:00,0,28218930,187933
OK,179,14,986,179,2014-10-02T06:15:00,2,28219379,187933
OK,171,15,986,171,2014-10-02T06:20:00,3,28219752,187933
OK,171,15,986,171,2014-10-02T06:25:00,3,28220201,187933
OK,150,17,986,150,2014-10-02T06:30:00,2,28220635,187933
OK,130,20,986,130,2014-10-02T06:35:00,1,28221084,187933
OK,121,21,986,121,2014-10-02T06:40:00,2,28221465,187933
OK,109,24,986,109,2014-10-02T06:45:00,4,28221751,187933
OK,157,16,986,157,2014-10-02T07:00:00,4,28222345,187933
OK,157,16,986,157,2014-10-02T07:05:00,4,28222794,187933
OK,128,20,986,128,2014-10-02T07:10:00,0,28223225,187933
OK,128,20,986,128,2014-10-02T07:15:00,0,28223660,187933
OK,128,20,986,128,2014-10-02T07:20:00,0,28224108,187933
OK,122,21,986,122,2014-10-02T07:25:00,0,28224463,187933
OK,122,21,986,122,2014-10-02T07:30:00,0,28224912,187933
OK,85,30,986,85,2014-10-02T07:35:00,2,28225361,187933
OK,86,30,986,86,2014-10-02T07:40:00,1,28225683,187933
OK,59,44,986,59,2014-10-02T07:50:00,3,28226573,187933
OK,82,32,986,82,2014-10-02T07:55:00,0,28227022,187933
OK,82,32,986,82,2014-10-02T08:00:00,0,28227437,187933
OK,40,65,986,40,2014-10-02T08:05:00,1,28227886,187933
OK,40,65,986,40,2014-10-02T08:10:00,0,28228245,187933
OK,78,33,986,78,2014-10-02T08:20:00,5,28229104,187933
OK,78,33,986,78,2014-10-02T08:25:00,2,28229553,187933
OK,67,39,986,67,2014-10-02T08:30:00,0,28229903,187933
OK,67,39,986,67,2014-10-02T08:35:00,0,28230352,187933
OK,67,39,986,67,2014-10-02T08:40:00,0,28230718,187933
OK,67,39,986,67,2014-10-02T08:45:00,0,28231167,187933
OK,67,39,986,67,2014-10-02T08:50:00,0,28231590,187933
OK,67,39,986,67,2014-10-02T08:55:00,0,28232039,187933
OK,102,25,986,102,2014-10-02T09:00:00,2,28232381,187933
OK,91,28,986,91,2014-10-02T09:10:00,0,28232830,187933
OK,90,29,986,90,2014-10-02T09:15:00,0,28233279,187933
OK,90,29,986,90,2014-10-02T09:20:00,0,28233703,187933
OK,90,29,986,90,2014-10-02T09:25:00,0,28234152,187933
OK,90,29,986,90,2014-10-02T09:30:00,0,28234485,187933
OK,116,22,986,116,2014-10-02T09:40:00,0,28235361,187933
OK,90,29,986,90,2014-10-02T09:45:00,2,28235810,187933
OK,109,24,986,109,2014-10-02T09:50:00,0,28236253,187933
OK,109,24,986,109,2014-10-02T09:55:00,0,28236700,187933
OK,109,24,986,109,2014-10-02T10:00:00,0,28237103,187933
OK,109,24,986,109,2014-10-02T10:05:00,0,28237551,187933
OK,85,30,986,85,2014-10-02T10:10:00,4,28237999,187933
OK,118,22,986,118,2014-10-02T10:15:00,2,28238446,187933
OK,26,101,986,26,2014-10-02T10:20:00,1,28238887,187933
OK,26,101,986,26,2014-10-02T10:25:00,0,28239336,187933
OK,26,101,986,26,2014-10-02T10:30:00,0,28239766,187933
OK,85,30,986,85,2014-10-02T10:35:00,1,28240215,187933
OK,85,30,986,85,2014-10-02T10:40:00,0,28240659,187933
OK,94,27,986,94,2014-10-02T10:45:00,1,28241108,187933
OK,94,27,986,94,2014-10-02T10:50:00,1,28241540,187933
OK,130,20,986,130,2014-10-02T10:55:00,1,28241988,187933
OK,130,20,986,130,2014-10-02T11:00:00,1,28242384,187933
OK,130,20,986,130,2014-10-02T11:05:00,0,28242833,187933
OK,71,37,986,71,2014-10-02T11:10:00,2,28243282,187933
OK,96,27,986,96,2014-10-02T11:15:00,2,28243608,187933
OK,116,22,986,116,2014-10-02T11:20:00,0,28244045,187933
OK,116,22,986,116,2014-10-02T11:25:00,0,28244474,187933
OK,116,22,986,116,2014-10-02T11:30:00,0,28244923,187933
OK,81,32,986,81,2014-10-02T11:35:00,0,28245372,187933
OK,81,32,986,81,2014-10-02T11:40:00,0,28245778,187933
OK,81,32,986,81,2014-10-02T11:45:00,0,28246227,187933
OK,72,36,986,72,2014-10-02T11:50:00,2,28246664,187933
OK,79,33,986,79,2014-10-02T11:55:00,3,28247113,187933
OK,79,33,986,79,2014-10-02T12:00:00,3,28247559,187933
OK,87,30,986,87,2014-10-02T12:05:00,0,28247989,187933
OK,87,30,986,87,2014-10-02T12:10:00,0,28248438,187933
OK,84,31,986,84,2014-10-02T12:15:00,1,28248885,187933
OK,84,31,986,84,2014-10-02T12:20:00,1,28249313,187933
OK,90,29,986,90,2014-10-02T12:25:00,2,28249757,187933
OK,84,31,986,84,2014-10-02T12:30:00,0,28250176,187933
OK,84,31,986,84,2014-10-02T12:35:00,0,28250574,187933
OK,107,24,986,107,2014-10-02T13:20:00,3,28251899,187933
OK,84,31,986,84,2014-10-02T13:30:00,1,28252483,187933
OK,201,13,986,201,2014-10-02T13:35:00,0,28252925,187933
OK,201,13,986,201,2014-10-02T13:40:00,0,28253342,187933
OK,55,47,986,55,2014-10-02T13:50:00,0,28254196,187933
OK,55,47,986,55,2014-10-02T13:55:00,0,28254517,187933
OK,55,47,986,55,2014-10-02T14:10:00,0,28255094,187933
OK,72,36,986,72,2014-10-02T14:15:00,2,28255543,187933
OK,72,36,986,72,2014-10-02T14:20:00,2,28255971,187933
OK,72,36,986,72,2014-10-02T14:25:00,0,28256420,187933
OK,72,36,986,72,2014-10-02T14:30:00,0,28256848,187933
OK,125,21,986,125,2014-10-02T14:35:00,1,28257297,187933
OK,125,21,986,125,2014-10-02T14:40:00,1,28257738,187933
OK,134,19,986,134,2014-10-02T14:45:00,1,28258186,187933
OK,104,25,986,104,2014-10-02T14:50:00,1,28258619,187933
OK,108,24,986,108,2014-10-02T14:55:00,2,28259065,187933
OK,122,21,986,122,2014-10-02T15:00:00,3,28259514,187933
OK,126,20,986,126,2014-10-02T15:05:00,2,28259961,187933
OK,126,20,986,126,2014-10-02T15:10:00,0,28260394,187933
OK,74,35,986,74,2014-10-02T15:15:00,3,28260843,187933
OK,47,55,986,47,2014-10-02T15:20:00,2,28261283,187933
OK,71,37,986,71,2014-10-02T15:25:00,1,28261665,187933
OK,71,37,986,71,2014-10-02T15:30:00,0,28262095,187933
OK,96,27,986,96,2014-10-02T15:40:00,1,28262988,187933
OK,67,39,986,67,2014-10-02T15:45:00,2,28263426,187933
OK,67,39,986,67,2014-10-02T15:50:00,0,28263867,187933
OK,67,39,986,67,2014-10-02T15:55:00,0,28264269,187933
OK,72,36,986,72,2014-10-02T16:00:00,1,28264718,187933
OK,96,27,986,96,2014-10-02T16:05:00,2,28265156,187933
OK,120,21,986,120,2014-10-02T16:10:00,1,28265596,187933
OK,120,21,986,120,2014-10-02T16:15:00,0,28265992,187933
OK,120,21,986,120,2014-10-02T16:20:00,0,28266441,187933
OK,120,21,986,120,2014-10-02T16:25:00,0,28266890,187933